Tracking 30160 objects as of 13-Feb-2025
HD Live streaming from Space Station
objects crossing your sky now

STARLINK-4103

Track STARLINK-4103 now!
10-day predictions
STARLINK-4103 is classified as:


NORAD ID: 53141
Int'l Code: 2022-083K
Perigee: 546.0 km
Apogee: 547.8 km
Inclination: 53.2 °
Period: 95.4 minutes
Semi major axis: 6917 km
RCS: Unknown
Launch date: July 17, 2022
Source: United States (US)
Launch site: AIR FORCE EASTERN TEST RANGE (AFETR)
Your satellite tracking list
Your tracking list is empty




NASA's NSSDC Master Catalog

Two Line Element Set (TLE):
1 53141U 22083K   25044.48481171  .00000571  00000-0  53943-4 0  9999
2 53141  53.2169 121.3290 0001333  94.9800 265.1344 15.08833844142466
Source of the keplerian elements: AFSPC